• In Hungary
  • List of Countries
  • For 7 days
  • Water Temperature
  • Satellite Maps
  • Weather Map
  • News
  • Weather Widgets
  • user-avatar
    Login

    Hourly Weather Naprom

    Today, 20 June, Wednesday

    Time Temperature Precipitation Wind Pressure Humidity
    00:00 +15°C° 0 mm 2 mps 751 mmHg 90%
    01:00 +15°C° 0 mm 2 mps 751 mmHg 91%
    02:00 +14°C° 0 mm 2 mps 751 mmHg 92%
    03:00 +14°C° 0 mm 2 mps 751 mmHg 93%
    04:00 +13°C° 0 mm 3 mps 752 mmHg 94%
    05:00 +14°C° 0 mm 3 mps 752 mmHg 85%
    06:00 +15°C° 0 mm 4 mps 752 mmHg 77%
    07:00 +18°C° 0 mm 4 mps 752 mmHg 67%
    08:00 +19°C° 0 mm 4 mps 752 mmHg 63%
    09:00 +20°C° 0 mm 4 mps 752 mmHg 59%
    10:00 +21°C° 0 mm 4 mps 752 mmHg 55%
    11:00 +22°C° 0 mm 4 mps 752 mmHg 53%
    12:00 +23°C° 0 mm 4 mps 752 mmHg 50%
    13:00 +25°C° 0 mm 4 mps 752 mmHg 48%
    14:00 +25°C° 0 mm 4 mps 752 mmHg 49%
    15:00 +25°C° 0 mm 3 mps 751 mmHg 49%
    16:00 +26°C° 0 mm 3 mps 751 mmHg 50%
    17:00 +25°C° 0 mm 3 mps 751 mmHg 56%
    18:00 +24°C° 0 mm 2 mps 750 mmHg 61%
    19:00 +23°C° 0 mm 2 mps 750 mmHg 67%
    20:00 +20°C° 0 mm 2 mps 750 mmHg 71%
    21:00 +19°C° 0 mm 2 mps 750 mmHg 74%
    22:00 +18°C° 0 mm 3 mps 749 mmHg 78%
    23:00 +18°C° 0 mm 3 mps 749 mmHg 81%

    Tomorrow, 21 June, Thursday

    Time Temperature Precipitation Wind Pressure Humidity
    00:00 +17°C° 0 mm 3 mps 749 mmHg 84%
    01:00 +17°C° 0 mm 3 mps 748 mmHg 87%
    02:00 +17°C° 0 mm 3 mps 748 mmHg 85%
    03:00 +18°C° 0 mm 3 mps 747 mmHg 84%
    04:00 +18°C° 0 mm 3 mps 747 mmHg 83%
    05:00 +19°C° 0.1 mm 4 mps 746 mmHg 83%
    06:00 +20°C° 0.1 mm 4 mps 746 mmHg 82%
    07:00 +21°C° 0.1 mm 5 mps 746 mmHg 81%
    08:00 +22°C° 0.2 mm 5 mps 745 mmHg 74%
    09:00 +24°C° 0.2 mm 6 mps 744 mmHg 67%
    10:00 +27°C° 0.2 mm 7 mps 744 mmHg 61%
    11:00 +27°C° 0.2 mm 7 mps 743 mmHg 59%
    12:00 +28°C° 0.2 mm 7 mps 742 mmHg 58%
    13:00 +28°C° 0.2 mm 6 mps 741 mmHg 56%
    14:00 +27°C° 0.6 mm 6 mps 741 mmHg 63%
    15:00 +26°C° 0.6 mm 6 mps 740 mmHg 70%
    16:00 +25°C° 0.6 mm 5 mps 739 mmHg 76%
    17:00 +22°C° 0.9 mm 5 mps 739 mmHg 81%
    18:00 +20°C° 0.9 mm 6 mps 739 mmHg 85%
    19:00 +17°C° 0.9 mm 6 mps 739 mmHg 89%
    20:00 +15°C° 0.1 mm 6 mps 740 mmHg 90%
    21:00 +14°C° 0.1 mm 6 mps 740 mmHg 90%
    22:00 +12°C° 0.1 mm 5 mps 741 mmHg 90%
    23:00 +10°C° 0 mm 5 mps 741 mmHg 90%

    Day after tomorrow, 22 June, Friday

    Time Temperature Precipitation Wind Pressure Humidity
    00:00 +9°C° 0 mm 5 mps 741 mmHg 89%
    01:00 +8°C° 0 mm 5 mps 742 mmHg 88%
    02:00 +8°C° 0 mm 5 mps 742 mmHg 88%
    03:00 +7°C° 0 mm 5 mps 742 mmHg 87%
    04:00 +7°C° 0 mm 5 mps 742 mmHg 87%
    05:00 +8°C° 0 mm 6 mps 742 mmHg 81%
    06:00 +9°C° 0 mm 7 mps 742 mmHg 74%
    07:00 +11°C° 0 mm 8 mps 742 mmHg 68%
    08:00 +11°C° 0 mm 8 mps 742 mmHg 67%
    09:00 +11°C° 0 mm 9 mps 743 mmHg 66%
    10:00 +11°C° 0 mm 9 mps 743 mmHg 65%
    11:00 +12°C° 0 mm 9 mps 743 mmHg 65%
    12:00 +12°C° 0 mm 8 mps 743 mmHg 65%
    13:00 +13°C° 0 mm 8 mps 743 mmHg 65%
    14:00 +15°C° 0.2 mm 7 mps 744 mmHg 65%
    15:00 +15°C° 0.2 mm 7 mps 744 mmHg 64%
    16:00 +16°C° 0.2 mm 6 mps 744 mmHg 63%
    17:00 +15°C° 0.1 mm 5 mps 744 mmHg 66%
    18:00 +15°C° 0.1 mm 4 mps 744 mmHg 69%
    19:00 +14°C° 0.1 mm 3 mps 744 mmHg 71%
    20:00 +13°C° 0 mm 3 mps 744 mmHg 74%
    21:00 +12°C° 0 mm 3 mps 744 mmHg 77%
    22:00 +10°C° 0 mm 4 mps 744 mmHg 80%
    23:00 +10°C° 0 mm 4 mps 744 mmHg 81%

    23 June, Saturday

    Time Temperature Precipitation Wind Pressure Humidity
    00:00 +10°C° 0 mm 4 mps 744 mmHg 83%
    01:00 +10°C° 0 mm 4 mps 744 mmHg 84%
    02:00 +10°C° 0 mm 4 mps 744 mmHg 86%
    03:00 +10°C° 0 mm 4 mps 744 mmHg 87%
    04:00 +10°C° 0 mm 4 mps 744 mmHg 88%
    05:00 +10°C° 0.3 mm 4 mps 744 mmHg 89%
    06:00 +9°C° 0.3 mm 5 mps 744 mmHg 90%
    07:00 +10°C° 0.3 mm 5 mps 744 mmHg 91%
    08:00 +10°C° 0.5 mm 5 mps 744 mmHg 89%
    09:00 +12°C° 0.5 mm 5 mps 744 mmHg 88%
    10:00 +12°C° 0.5 mm 5 mps 745 mmHg 86%
    11:00 +13°C° 0.5 mm 5 mps 745 mmHg 82%
    12:00 +14°C° 0.5 mm 6 mps 745 mmHg 79%
    13:00 +15°C° 0.5 mm 6 mps 745 mmHg 75%
    14:00 +15°C° 0.5 mm 6 mps 745 mmHg 74%
    15:00 +15°C° 0.5 mm 5 mps 745 mmHg 73%
    16:00 +16°C° 0.5 mm 5 mps 745 mmHg 71%
    17:00 +15°C° 0.2 mm 4 mps 746 mmHg 74%
    18:00 +14°C° 0.2 mm 3 mps 746 mmHg 77%
    19:00 +15°C° 0.2 mm 2 mps 746 mmHg 79%
    20:00 +13°C° 0 mm 2 mps 746 mmHg 81%
    21:00 +12°C° 0 mm 2 mps 747 mmHg 82%
    22:00 +10°C° 0 mm 2 mps 747 mmHg 83%
    23:00 +10°C° 0 mm 2 mps 747 mmHg 84%

    24 June, Sunday

    Time Temperature Precipitation Wind Pressure Humidity
    00:00 +10°C° 0 mm 3 mps 747 mmHg 84%
    01:00 +10°C° 0 mm 3 mps 747 mmHg 84%
    02:00 +10°C° 0 mm 3 mps 748 mmHg 87%
    03:00 +10°C° 0 mm 3 mps 748 mmHg 90%
    04:00 +10°C° 0 mm 4 mps 748 mmHg 92%
    05:00 +11°C° 0 mm 4 mps 748 mmHg 89%
    06:00 +12°C° 0 mm 4 mps 748 mmHg 86%
    07:00 +14°C° 0 mm 4 mps 748 mmHg 82%
    08:00 +15°C° 0.3 mm 4 mps 749 mmHg 79%
    09:00 +17°C° 0.3 mm 3 mps 749 mmHg 75%
    10:00 +18°C° 0.3 mm 3 mps 749 mmHg 72%
    11:00 +19°C° 0.4 mm 3 mps 749 mmHg 67%
    12:00 +19°C° 0.4 mm 3 mps 749 mmHg 61%
    13:00 +20°C° 0.4 mm 2 mps 749 mmHg 56%
    14:00 +20°C° 0.3 mm 2 mps 749 mmHg 56%
    15:00 +20°C° 0.3 mm 2 mps 749 mmHg 57%
    16:00 +20°C° 0.3 mm 2 mps 749 mmHg 57%
    17:00 +19°C° 0.2 mm 2 mps 750 mmHg 63%
    18:00 +18°C° 0.2 mm 2 mps 750 mmHg 69%
    19:00 +18°C° 0.2 mm 1 mps 750 mmHg 75%
    20:00 +16°C° 0 mm 1 mps 750 mmHg 78%
    21:00 +14°C° 0 mm 1 mps 750 mmHg 80%
    22:00 +13°C° 0 mm 1 mps 751 mmHg 83%
    23:00 +12°C° 0 mm 1 mps 751 mmHg 83%

    25 June, Monday

    Time Temperature Precipitation Wind Pressure Humidity
    00:00 +12°C° 0 mm 1 mps 751 mmHg 83%
    01:00 +12°C° 0 mm 1 mps 751 mmHg 83%
    02:00 +12°C° 0 mm 1 mps 751 mmHg 84%
    03:00 +12°C° 0 mm 1 mps 751 mmHg 85%
    04:00 +12°C° 0 mm 1 mps 751 mmHg 86%
    05:00 +13°C° 0 mm 1 mps 751 mmHg 83%
    06:00 +15°C° 0 mm 2 mps 751 mmHg 79%
    07:00 +17°C° 0 mm 2 mps 752 mmHg 76%
    08:00 +18°C° 0 mm 2 mps 752 mmHg 71%
    09:00 +19°C° 0 mm 3 mps 752 mmHg 66%
    10:00 +20°C° 0 mm 3 mps 752 mmHg 61%
    11:00 +20°C° 0.1 mm 3 mps 752 mmHg 60%
    12:00 +21°C° 0.1 mm 3 mps 751 mmHg 58%
    13:00 +21°C° 0.1 mm 4 mps 751 mmHg 57%
    14:00 +21°C° 0.1 mm 3 mps 751 mmHg 60%
    15:00 +21°C° 0.1 mm 3 mps 751 mmHg 62%
    16:00 +21°C° 0.1 mm 3 mps 751 mmHg 65%
    17:00 +20°C° 0.1 mm 3 mps 751 mmHg 72%
    18:00 +19°C° 0.1 mm 2 mps 752 mmHg 78%
    19:00 +18°C° 0.1 mm 2 mps 752 mmHg 85%
    20:00 +17°C° 0 mm 2 mps 752 mmHg 89%
    21:00 +15°C° 0 mm 2 mps 752 mmHg 92%
    22:00 +14°C° 0 mm 2 mps 752 mmHg 95%
    23:00 +14°C° 0 mm 2 mps 753 mmHg 95%
    Show more